Vorticity
11 15 8 9 10 13 14 14 13 13 14 14 18 25 17 23 17 7 4 13 20 11 -3 -1 15 23 39 25 1 -1 12 2 16 26 16 3 9 -1 25 -19 -1 -16 6 25 24 7 27 24 7 9 31 30 30 19
9 6 19 19 13 4 15 18 17 18 19 23 19 18 14 14 21 21 8 5 -1 8 13 21 -9 -2 26 12 31 28 1 23 -6 14 13 25 4 -18 21 4 19 27 -20 -14 -12 -7 -13 -16 -20 3 -1 41 14 8
19 29 17 3 25 20 10 11 11 14 14 15 15 21 18 10 14 17 15 10 11 3 20 3 -1 -3 30 10 15 4 13 22 9 32 5 16 -22 9 10 -8 12 16 7 -3 4 0 -16 6 14 0 16 -39 -10 29
9 9 16 16 10 14 18 19 18 15 17 21 23 18 21 16 15 11 12 15 14 10 -9 2 38 14 20 24 9 22 22 25 4 -1 7 4 -1 24 3 7 9 10 29 12 13 10 -3 9 15 13 2 11 26 2
13 12 14 12 14 19 14 20 19 23 25 24 21 18 17 21 16 17 14 5 12 9 48 55 -4 44 -36 -20 -0 30 33 -9 7 14 7 19 13 16 -22 26 10 2 5 2 3 7 8 4 11 18 -1 8 10 3
13 10 23 13 18 26 27 21 23 25 45 42 29 37 18 27 18 17 8 1 16 17 7 -29 5 58 33 11 13 0 -2 17 3 12 16 13 9 -2 46 30 15 17 21 26 25 1 9 4 12 17 5 2 14 -1
24 22 11 20 20 14 24 12 17 35 27 26 32 26 22 29 17 9 2 11 15 2 15 30 31 37 17 36 22 -3 8 3 1 9 7 10 2 17 16 -18 -2 8 19 6 10 11 7 11 -1 -3 2 -1 3 3
16 21 6 21 18 12 16 9 28 33 24 28 33 24 24 18 12 9 5 -1 26 9 12 1 26 11 18 19 25 23 19 19 15 10 -1 -1 11 61 4 12 1 2 -11 -5 5 5 17 8 4 13 10 13 11 13
25 15 9 12 13 28 28 30 32 27 11 38 12 10 18 26 10 -5 8 -3 35 2 13 21 41 30 -7 51 3 14 10 13 -20 55 67 53 33 11 8 22 27 27 19 11 11 11 2 7 8 6 12 8 8 8
18 13 15 13 16 16 18 14 4 9 18 17 9 1 3 6 12 12 28 2 31 -54 23 40 3 26 19 2 11 9 15 12 12 19 20 16 12 24 9 -3 3 13 5 45 29 1 15 15 19 11 7 19 22 30
14 9 12 16 14 -26 22 14 5 3 -12 10 49 69 17 28 9 -45 12 13 19 8 31 10 14 43 13 9 10 -7 17 15 13 34 -5 13 16 13 15 17 30 10 9 23 25 16 31 14 6 20 20 17 18 15
10 11 9 16 10 8 7 -2 29 1 15 27 11 -13 -5 -7 9 14 11 8 12 18 15 5 13 22 24 6 -3 3 -0 7 8 38 -5 18 8 22 16 23 13 14 12 5 15 14 8 9 8 2 4 7 5 2
8 8 11 8 17 -0 -3 14 3 11 2 -6 -24 -11 3 13 13 8 9 13 19 20 21 9 3 7 24 -7 17 2 11 8 18 3 14 19 12 8 8 11 12 15 11 8 12 13 6 22 26 24 22 22 24 27
12 4 6 13 13 9 18 11 16 -5 -11 -16 9 13 14 13 13 38 20 15 20 11 10 12 25 -4 7 -7 25 3 34 6 6 11 10 12 8 15 17 18 18 17 20 22 22 26 29 26 30 30 32 33 23 18
6 6 1 12 8 20 6 3 -2 -9 4 9 8 10 29 31 14 8 11 10 8 6 13 10 10 5 11 8 8 11 7 12 15 24 13 11 17 18 21 26 27 29 29 31 27 24 25 26 28 28 21 21 22 22
11 7 9 15 9 9 8 4 5 -2 0 18 35 25 7 4 9 5 7 10 10 8 4 2 13 18 15 17 8 15 10 15 40 9 15 15 17 18 17 13 11 9 8 7 6 8 8 8 8 8 6 6 7 7
14 21 16 8 17 -5 17 13 11 -1 16 20 18 11 10 6 8 6 10 22 17 8 4 -5 13 15 14 15 8 16 36 25 14 17 16 13 10 6 6 6 6 5 5 5 7 6 7 6 5 5 5 5 4 4
11 10 7 11 17 7 -2 -3 6 12 28 9 10 10 7 7 3 8 14 12 9 11 34 13 16 7 7 16 47 30 5 10 15 12 8 6 5 5 5 6 6 6 7 6 5 4 5 5 5 5 6 6 7 6
1 4 9 7 7 19 5 1 -0 17 17 8 9 11 11 13 14 13 7 12 17 5 9 2 20 47 52 27 7 10 14 14 9 5 4 4 5 5 6 6 7 6 5 5 5 5 6 7 7 8 8 8 8 8
16 26 23 30 38 39 8 14 15 8 11 10 15 16 19 17 13 15 11 9 19 86 52 31 2 11 12 13 15 13 11 7 6 6 6 6 6 5 5 5 5 4 5 6 7 7 7 7 8 8 9 10 9 9
39 27 36 35 43 17 32 28 14 9 12 24 26 30 14 15 32 48 62 47 4 7 4 12 12 11 10 8 6 5 4 3 7 7 5 7 6 7 5 5 6 8 9 7 7 8 10 11 10 10 11 10 10 11
19 31 23 28 7 9 31 34 27 22 42 20 22 28 29 29 22 10 5 7 2 6 7 7 7 6 5 5 4 5 5 7 7 6 5 5 6 9 9 7 6 6 7 8 9 8 9 9 9 9 9 10 11 11
1 -4 8 -12 -17 -11 12 8 -4 18 11 14 3 -4 -2 -9 -11 -15 16 6 4 5 6 7 7 6 6 5 5 4 3 3 3 5 6 6 5 5 6 7 8 8 9 11 11 10 10 10 10 11 12 13 15 18
-1 -0 -3 6 37 39 15 25 9 -4 4 10 17 19 22 18 9 6 5 3 5 4 4 3 2 4 5 6 6 6 7 8 8 7 6 6 6 9 11 12 13 11 11 10 11 12 12 13 15 16 19 22 17 12
-2 6 33 -1 -3 18 -2 11 13 29 8 7 -0 -2 -2 6 16 9 6 3 4 4 4 5 5 6 7 6 6 6 6 6 8 9 10 15 14 13 12 11 11 11 12 13 15 16 16 19 21 18 13 11 10 9
10 -4 15 35 20 8 24 3 6 5 -1 -3 15 3 -13 -15 -0 26 7 6 6 7 7 7 6 6 5 6 8 7 6 8 9 11 11 12 13 12 10 10 12 13 16 15 16 18 17 13 11 10 9 9 10 11
23 33 20 9 22 8 9 10 1 9 5 17 10 -9 1 12 14 27 8 4 9 6 7 6 7 7 6 6 8 9 10 12 13 13 12 10 9 10 12 13 15 15 16 17 15 13 11 10 9 10 11 11 11 11
17 12 14 10 10 11 9 4 3 3 10 11 8 10 18 21 35 7 9 6 6 7 6 6 6 6 8 10 11 12 13 12 11 10 9 11 12 15 16 17 17 16 14 14 13 10 10 11 12 12 11 11 10 8
16 10 10 14 9 2 3 20 27 19 13 14 14 17 12 12 8 8 8 8 8 8 8 9 10 11 13 13 13 13 13 12 13 15 16 16 18 17 15 15 14 14 12 10 10 10 12 13 11 10 10 9 8 8
8 10 5 6 12 9 6 12 8 8 9 9 13 14 13 11 9 10 10 9 10 10 10 12 12 12 11 12 12 14 14 15 16 16 16 16 15 15 15 14 13 10 10 11 12 13 12 11 11 10 9 8 8 8
6 7 11 5 15 9 6 6 6 8 9 8 9 7 8 10 10 9 11 10 11 12 12 11 11 11 11 11 11 11 11 11 12 12 13 13 13 13 11 10 9 11 11 12 13 11 10 10 10 10 9 8 8 9
11 6 8 23 7 5 7 4 6 9 8 9 7 7 6 8 9 12 8 12 11 12 12 12 12 11 12 10 10 11 12 12 12 12 13 13 11 10 11 10 11 12 13 13 11 10 10 11 9 8 8 9 10 11
10 15 10 17 5 8 5 10 4 6 12 8 3 6 7 9 10 10 12 12 12 11 12 12 11 10 10 11 12 11 12 12 13 14 12 11 10 11 11 11 12 13 12 10 10 11 10 8 9 10 10 10 11 13
Height
2831 2831 2830 2829 2828 2829 2830 2832 2835 2838 2841 2845 2850 2856 2863 2870 2878 2884 2891 2898 2904 2906 2911 2919 2925 2930 2935 2943 2949 2957 2969 2970 2975 2978 2980 2980 2980 2981 2983 2985 2986 2989 2992 2991 2993 2992 2986 2980 2978 2979 2977 2975 2976 2976
2823 2822 2822 2821 2821 2822 2822 2823 2825 2827 2830 2834 2839 2845 2853 2861 2869 2877 2883 2889 2897 2903 2905 2913 2920 2925 2929 2937 2945 2949 2954 2961 2967 2969 2970 2973 2974 2977 2976 2977 2981 2982 2982 2986 2985 2978 2980 2978 2972 2974 2973 2975 2967 2971
2815 2814 2814 2814 2814 2814 2814 2814 2816 2818 2820 2823 2828 2834 2843 2853 2861 2868 2876 2882 2891 2896 2900 2905 2911 2923 2925 2930 2936 2941 2945 2953 2957 2962 2965 2968 2968 2970 2970 2970 2975 2975 2979 2979 2979 2973 2974 2973 2974 2973 2970 2967 2962 2966
2810 2809 2809 2808 2807 2807 2806 2805 2805 2806 2808 2812 2817 2825 2834 2844 2854 2863 2869 2876 2886 2894 2897 2899 2906 2914 2922 2924 2930 2934 2940 2946 2952 2956 2959 2961 2961 2962 2964 2968 2969 2972 2973 2972 2970 2970 2972 2972 2971 2968 2966 2964 2959 2962
2806 2805 2804 2803 2802 2800 2799 2798 2796 2795 2796 2799 2805 2815 2825 2837 2848 2859 2867 2872 2880 2892 2894 2897 2903 2910 2916 2920 2925 2929 2933 2940 2944 2949 2950 2953 2955 2959 2960 2962 2961 2965 2964 2965 2964 2966 2964 2965 2967 2964 2961 2961 2962 2957
2804 2803 2802 2801 2799 2796 2794 2793 2791 2788 2785 2787 2795 2805 2819 2831 2844 2855 2865 2870 2877 2887 2894 2894 2896 2899 2907 2914 2921 2925 2930 2934 2938 2941 2944 2946 2950 2955 2954 2952 2951 2955 2957 2957 2958 2960 2960 2960 2961 2959 2958 2957 2955 2951
2805 2804 2803 2800 2798 2796 2793 2792 2789 2786 2786 2788 2794 2804 2816 2828 2839 2849 2857 2861 2874 2884 2889 2893 2893 2892 2900 2906 2913 2920 2926 2928 2932 2936 2936 2939 2943 2947 2947 2947 2947 2949 2951 2951 2951 2954 2955 2955 2954 2952 2951 2952 2950 2948
2806 2806 2805 2802 2800 2798 2797 2796 2793 2792 2792 2795 2799 2809 2822 2834 2846 2855 2860 2867 2876 2883 2886 2885 2887 2892 2897 2900 2907 2914 2919 2923 2926 2929 2929 2931 2936 2935 2938 2936 2936 2942 2945 2946 2946 2947 2948 2949 2948 2947 2947 2947 2946 2944
2809 2810 2810 2808 2807 2805 2804 2803 2802 2802 2803 2806 2812 2821 2830 2840 2849 2856 2864 2873 2877 2886 2886 2883 2884 2888 2890 2895 2904 2912 2917 2918 2922 2921 2922 2927 2924 2917 2927 2929 2930 2934 2938 2941 2941 2942 2943 2942 2942 2942 2942 2941 2940 2939
2814 2814 2815 2815 2815 2816 2816 2815 2816 2816 2817 2820 2827 2833 2841 2848 2856 2862 2868 2873 2880 2879 2881 2880 2883 2886 2892 2896 2903 2910 2913 2914 2917 2917 2918 2919 2919 2923 2925 2927 2927 2929 2929 2931 2934 2936 2935 2935 2936 2936 2935 2934 2932 2931
2820 2821 2822 2822 2824 2824 2825 2826 2827 2829 2830 2832 2835 2838 2847 2854 2861 2862 2866 2871 2875 2879 2879 2882 2885 2886 2891 2896 2901 2908 2911 2912 2913 2914 2915 2913 2913 2916 2918 2920 2923 2924 2925 2927 2929 2930 2930 2929 2929 2929 2929 2927 2926 2924
2826 2827 2828 2829 2831 2832 2834 2835 2835 2837 2839 2841 2842 2847 2851 2855 2860 2864 2867 2870 2873 2875 2878 2882 2884 2887 2891 2896 2902 2906 2907 2908 2908 2909 2911 2908 2910 2913 2916 2918 2918 2919 2920 2921 2921 2923 2922 2922 2923 2921 2920 2920 2919 2918
2834 2834 2835 2836 2837 2838 2840 2841 2843 2845 2846 2849 2852 2854 2855 2858 2860 2863 2866 2869 2872 2874 2878 2881 2885 2888 2891 2895 2899 2902 2903 2905 2906 2905 2905 2908 2909 2910 2912 2914 2915 2916 2916 2916 2915 2914 2912 2912 2911 2911 2913 2912 2913 2912
2840 2840 2841 2842 2843 2844 2845 2846 2849 2851 2852 2853 2853 2853 2856 2858 2862 2865 2868 2870 2873 2875 2878 2881 2885 2888 2891 2891 2894 2897 2899 2903 2903 2903 2905 2906 2907 2907 2909 2911 2912 2912 2912 2911 2911 2912 2910 2908 2908 2909 2909 2909 2909 2908
2844 2845 2845 2847 2848 2849 2850 2852 2853 2855 2855 2855 2855 2856 2859 2861 2864 2867 2869 2872 2874 2876 2879 2881 2883 2886 2888 2889 2891 2894 2896 2896 2899 2901 2903 2905 2907 2908 2910 2911 2911 2911 2912 2912 2911 2910 2910 2911 2911 2911 2911 2911 2911 2910
2847 2847 2848 2850 2852 2853 2855 2856 2857 2858 2857 2857 2858 2862 2864 2866 2867 2869 2870 2872 2874 2876 2878 2880 2881 2883 2884 2886 2888 2890 2894 2895 2898 2902 2904 2907 2909 2911 2913 2914 2915 2916 2916 2916 2915 2914 2915 2916 2916 2915 2915 2915 2914 2913
2849 2849 2850 2852 2855 2856 2857 2858 2859 2859 2860 2862 2864 2865 2867 2869 2870 2871 2872 2872 2874 2876 2877 2878 2879 2881 2883 2884 2887 2890 2892 2896 2900 2904 2907 2910 2913 2915 2917 2918 2918 2918 2919 2919 2920 2920 2920 2920 2919 2919 2919 2917 2916 2916
2850 2850 2851 2852 2854 2858 2859 2860 2861 2862 2864 2867 2868 2869 2870 2871 2871 2871 2871 2871 2872 2872 2872 2874 2877 2878 2881 2883 2888 2892 2896 2899 2903 2907 2910 2914 2917 2918 2920 2921 2921 2922 2923 2923 2923 2923 2923 2922 2921 2921 2920 2918 2917 2916
2850 2849 2849 2851 2853 2856 2859 2862 2864 2864 2869 2871 2871 2872 2872 2873 2873 2873 2871 2870 2871 2871 2871 2873 2877 2880 2883 2889 2893 2897 2902 2906 2909 2913 2916 2918 2919 2921 2922 2923 2924 2925 2925 2925 2924 2923 2923 2922 2921 2919 2918 2916 2915 2914
2847 2845 2845 2845 2845 2850 2856 2860 2866 2868 2872 2873 2874 2875 2876 2876 2876 2875 2874 2873 2872 2870 2871 2878 2884 2891 2894 2898 2903 2907 2910 2913 2917 2919 2921 2922 2923 2925 2925 2925 2924 2924 2923 2923 2922 2921 2921 2920 2918 2917 2915 2914 2912 2911
2846 2847 2846 2846 2845 2847 2854 2861 2866 2871 2874 2876 2878 2879 2878 2880 2880 2878 2877 2882 2879 2876 2883 2892 2897 2901 2905 2908 2911 2915 2917 2920 2922 2923 2924 2924 2924 2924 2924 2923 2922 2922 2921 2920 2919 2919 2918 2916 2915 2913 2912 2910 2908 2906
2851 2853 2854 2855 2852 2853 2863 2868 2869 2873 2879 2881 2882 2882 2885 2886 2888 2889 2890 2886 2888 2897 2899 2904 2907 2910 2913 2915 2917 2919 2922 2922 2924 2924 2924 2924 2923 2923 2922 2921 2920 2919 2918 2917 2915 2914 2913 2912 2910 2908 2906 2904 2902 2900
2858 2859 2860 2859 2861 2867 2875 2876 2878 2880 2885 2888 2889 2890 2893 2893 2893 2895 2895 2897 2900 2906 2910 2912 2914 2916 2919 2920 2921 2922 2923 2923 2923 2923 2923 2923 2922 2921 2920 2919 2918 2917 2916 2914 2913 2911 2910 2909 2907 2905 2903 2900 2898 2896
2866 2866 2865 2867 2871 2875 2879 2881 2883 2886 2889 2891 2892 2894 2896 2898 2902 2902 2903 2906 2910 2913 2916 2917 2918 2921 2922 2923 2923 2924 2924 2924 2924 2923 2922 2921 2920 2919 2918 2917 2915 2914 2913 2911 2910 2908 2906 2904 2902 2900 2898 2897 2895 2894
2872 2873 2876 2878 2879 2883 2884 2887 2889 2891 2893 2895 2896 2900 2904 2907 2909 2910 2911 2913 2915 2917 2918 2920 2921 2922 2923 2924 2924 2924 2924 2923 2922 2921 2920 2919 2917 2916 2915 2913 2912 2911 2909 2907 2906 2904 2902 2900 2898 2897 2896 2895 2894 2892
2874 2878 2880 2883 2885 2888 2890 2893 2896 2898 2900 2901 2904 2907 2909 2911 2912 2916 2916 2916 2916 2918 2920 2921 2922 2923 2923 2924 2924 2923 2923 2921 2920 2918 2917 2915 2914 2912 2911 2910 2908 2907 2905 2903 2901 2900 2899 2897 2896 2895 2894 2892 2891 2889
2875 2879 2882 2885 2887 2890 2893 2896 2899 2900 2901 2903 2905 2906 2908 2910 2912 2915 2916 2917 2918 2919 2920 2921 2922 2922 2922 2921 2921 2920 2918 2917 2916 2915 2913 2912 2911 2909 2908 2906 2904 2903 2901 2900 2899 2898 2897 2896 2894 2893 2891 2889 2887 2885
2878 2882 2885 2889 2891 2894 2896 2898 2900 2903 2904 2905 2907 2906 2908 2909 2913 2915 2916 2918 2919 2920 2920 2921 2921 2921 2921 2920 2919 2917 2916 2914 2913 2912 2910 2909 2907 2906 2904 2903 2901 2900 2899 2898 2897 2896 2895 2894 2892 2890 2888 2886 2884 2882
2882 2885 2890 2893 2896 2897 2899 2901 2901 2903 2905 2906 2907 2908 2910 2912 2914 2917 2918 2919 2920 2920 2920 2920 2920 2919 2918 2917 2917 2915 2914 2912 2911 2909 2907 2906 2904 2903 2901 2900 2899 2898 2897 2896 2894 2893 2891 2890 2889 2887 2885 2883 2881 2878
2886 2889 2892 2895 2897 2898 2901 2903 2905 2907 2908 2910 2912 2912 2913 2915 2916 2917 2918 2919 2919 2919 2919 2918 2917 2917 2916 2915 2914 2913 2911 2910 2908 2907 2905 2904 2902 2901 2900 2898 2897 2896 2894 2893 2891 2890 2889 2887 2885 2883 2881 2879 2876 2873
2889 2893 2896 2897 2898 2901 2904 2906 2908 2910 2912 2913 2914 2915 2916 2916 2917 2917 2918 2918 2918 2917 2917 2916 2915 2915 2913 2912 2911 2910 2908 2907 2906 2904 2903 2901 2900 2899 2897 2896 2895 2893 2892 2890 2889 2887 2885 2883 2881 2879 2876 2874 2871 2867
2894 2896 2898 2899 2901 2904 2906 2908 2910 2912 2913 2914 2915 2916 2917 2917 2917 2917 2917 2916 2916 2916 2915 2914 2914 2913 2912 2910 2909 2908 2907 2905 2904 2903 2901 2900 2898 2897 2895 2894 2892 2891 2889 2888 2886 2884 2882 2880 2877 2875 2872 2869 2865 2861
2897 2900 2902 2903 2904 2907 2909 2911 2912 2914 2915 2915 2916 2917 2917 2917 2917 2917 2916 2915 2915 2914 2914 2913 2912 2911 2910 2909 2907 2906 2905 2903 2902 2901 2899 2898 2896 2895 2893 2892 2890 2888 2887 2885 2883 2881 2879 2876 2873 2870 2866 2863 2859 2855